Flag Weather past 2 weeks in Allentown, Pennsylvania, U.S.A.

Now
69 °F

Overcast.


Feels Like: 69 °F
Forecast: 49 / 66 °F
Wind: 13 mph from Southwest

Location: Lehigh Valley International Airport

Current Time: Nov 24, 2014 at 11:40:41 AM

Latest Report: Nov 24, 2014 at 10:51 AM


Visibility: 10 mi

Pressure: 29.62 "Hg

Humidity: 68%

Dew point: 58 °F

Location of AllentownLocation

Historic Weather in Allentown — Graph

°F

Allentown temperature yesterday

Maximum temperature yesterday: 59 °F (at 2:51 PM)
Minimum temperature yesterday: 34 °F (at 6:51 AM)
Average temperature yesterday: 45 °F

Past Weeks' High & Low Weather Summary

 TemperatureHumidityPressure
High68 °F (Nov 24, 9:51 AM)94% (Nov 24, 1:01 AM)30.52 "Hg (Nov 24, 1:01 AM)
Low16 °F (Nov 22, 2:51 AM)26% (Nov 23, 1:51 PM)29.53 "Hg (Nov 17, 3:51 PM)
Average38 °F60%30.09 "Hg
* Reported Nov 9 9:51 AM — Nov 24 9:51 AM, Allentown, Weather by CustomWeather, © 2014

Note: Actual official high and low records may vary slightly from our data, if they occured in-between our weather recording intervals... More about our weather records

Advertising

Allentown weather history for previous 24 hours

 ConditionsComfort  
Time TempWeatherWind HumidityBarometerVisibility
9:51 AM
Nov 24
68 °FPartly sunny.15 mph70%29.64 "Hg10 mi
8:51 AM67 °FOvercast.15 mph76%29.64 "Hg10 mi
7:51 AM64 °FOvercast.15 mph81%29.64 "Hg10 mi
6:51 AM64 °FMostly cloudy.15 mph84%29.63 "Hg10 mi
5:51 AM63 °FOvercast.10 mph87%29.64 "Hg2 mi
4:51 AM63 °FLight rain. Mostly cloudy.17 mph87%29.63 "Hg2 mi
3:51 AM57 °FLight rain. Fog.10 mph90%29.66 "Hg2 mi
3:03 AM55 °FRain. Fog.10 mph94%29.70 "Hg2 mi
2:51 AM56 °FHeavy rain. Fog.16 mph87%29.71 "Hg2 mi
1:51 AM53 °FLight rain. Fog.10 mph89%29.79 "Hg2 mi
1:01 AM50 °FRain. Fog.7 mph94%29.84 "Hg2 mi
11:58 PM
Nov 23
48 °FLight rain. Mostly cloudy.6 mph82%29.91 "Hg10 mi
10:51 PM50 °FMostly cloudy.5 mph61%29.97 "Hg10 mi
9:51 PM47 °FOvercast.5 mph52%30.01 "Hg10 mi
8:51 PM47 °FPassing clouds.No wind52%30.05 "Hg10 mi
7:51 PM47 °FClear.5 mph46%30.08 "Hg10 mi
6:51 PM50 °FClear.7 mph39%30.09 "Hg10 mi
5:51 PM49 °FClear.5 mph39%30.10 "Hg10 mi
4:51 PM53 °FClear.5 mph34%30.10 "Hg10 mi
3:51 PM56 °FSunny.8 mph30%30.11 "Hg10 mi
2:51 PM59 °FSunny.No wind27%30.11 "Hg10 mi
1:51 PM57 °FSunny.No wind26%30.12 "Hg10 mi
12:51 PM54 °FSunny.7 mph29%30.14 "Hg10 mi
11:51 AM51 °FSunny.No wind29%30.15 "Hg10 mi
Weather by CustomWeather, © 2014

See weather overviewHow to use our weather pages